Location: Goettingen
(51.5300°N, 9.9433°E)
Time: 14:38:05
(UTC+02:00)

ISS - Pass Details

Date: 23 September 2022
Orbit: 414 x 417 km, 51.6° (Epoch: 28 September)

Event Time Altitude Azimuth Distance (km) Brightness Sun altitude
Rises 22:08:30 0° 281° (W) 2,365 1.1 -25.9°
Reaches altitude 10° 22:10:37 10° 279° (W) 1,500 -0.2 -26.1°
Enters shadow 22:11:59 23° 276° (W) 954 -1.4 -26.3°
